| time (UTC) | temp C | wind direction | speed KPH | gust KPH | rain 1hr cm | rain 24hr cm | rain mn cm | humidity % | barometer mb |
| 20260502195041 | 17 | 23 | 0.0 | 0.0 | 0.00 | 0.00 | 0.00 | 16 | 1019.0 |
| 20260502194103 | 17 | 22 | 0.0 | 0.0 | 0.00 | 0.00 | 0.00 | 16 | 1019.0 |
| 20260502193125 | 17 | 22 | 0.0 | 0.0 | 0.00 | 0.00 | 0.00 | 16 | 1018.0 |
| 20260502192147 | 17 | 21 | 0.0 | 0.0 | 0.00 | 0.00 | 0.00 | 16 | 1018.0 |
| 20260502191209 | 17 | 20 | 0.0 | 0.0 | 0.00 | 0.00 | 0.00 | 16 | 1018.0 |
| 20260502190231 | 17 | 21 | 0.0 | 0.0 | 0.00 | 0.00 | 0.00 | 16 | 1018.0 |
| 20260502185254 | 17 | 20 | 0.0 | 0.0 | 0.00 | 0.00 | 0.00 | 16 | 1019.0 |
| 20260502183338 | 17 | 21 | 0.0 | 0.0 | 0.00 | 0.00 | 0.00 | 16 | 1019.0 |
| 20260502182400 | 17 | 21 | 0.0 | 0.0 | 0.00 | 0.00 | 0.00 | 16 | 1018.0 |
| 20260502181422 | 17 | 19 | 0.0 | 0.0 | 0.00 | 0.00 | 0.00 | 16 | 1019.0 |
| 20260502180444 | 17 | 19 | 0.0 | 0.0 | 0.00 | 0.00 | 0.00 | 15 | 1019.0 |
| 20260502163806 | 18 | 16 | 0.0 | 0.0 | 0.00 | 0.00 | 0.00 | 13 | 1019.0 |
| 20260502162828 | 18 | 15 | 0.0 | 0.0 | 0.00 | 0.00 | 0.00 | 13 | 1019.0 |
| 20260502161851 | 18 | 14 | 0.0 | 0.0 | 0.00 | 0.00 | 0.00 | 13 | 1019.0 |
| 20260502160913 | 18 | 16 | 0.0 | 0.0 | 0.00 | 0.00 | 0.00 | 13 | 1019.0 |
| 20260502152102 | 19 | 12 | 0.0 | 0.0 | 0.00 | 0.00 | 0.00 | 13 | 1020.0 |
| 20260502151123 | 19 | 14 | 0.0 | 0.0 | 0.00 | 0.00 | 0.00 | 13 | 1020.0 |
| 20260502150145 | 19 | 12 | 0.0 | 0.0 | 0.00 | 0.00 | 0.00 | 13 | 1020.0 |
| 20260502130611 | 18 | 16 | 0.0 | 0.0 | 0.00 | 0.00 | 0.00 | 13 | 1021.0 |
| 20260502123720 | 18 | 14 | 0.0 | 0.0 | 0.00 | 0.00 | 0.00 | 13 | 1021.0 |
| 20260502121801 | 19 | 15 | 0.0 | 0.0 | 0.00 | 0.00 | 0.00 | 13 | 1021.0 |
| 20260502120824 | 18 | 14 | 0.0 | 0.0 | 0.00 | 0.00 | 0.00 | 13 | 1021.0 |
| 20260502115846 | 18 | 13 | 0.0 | 0.0 | 0.00 | 0.00 | 0.00 | 13 | 1021.0 |
| 20260502114909 | 19 | 12 | 0.0 | 0.0 | 0.00 | 0.00 | 0.00 | 13 | 1021.0 |
| 20260502113930 | 18 | 15 | 0.0 | 0.0 | 0.00 | 0.00 | 0.00 | 13 | 1021.0 |
| 20260502112952 | 18 | 16 | 0.0 | 0.0 | 0.00 | 0.00 | 0.00 | 13 | 1022.0 |
| 20260502112018 | 18 | 17 | 0.0 | 0.0 | 0.00 | 0.00 | 0.00 | 15 | 1022.0 |
| 20260502111036 | 18 | 14 | 0.0 | 0.0 | 0.00 | 0.00 | 0.00 | 13 | 1022.0 |
| 20260502110101 | 20 | 12 | 0.0 | 0.0 | 0.00 | 0.00 | 0.00 | 12 | 1022.0 |
| 20260502105121 | 20 | 13 | 0.0 | 0.0 | 0.00 | 0.00 | 0.00 | 12 | 1022.0 |
| 20260502104143 | 20 | 10 | 0.0 | 0.0 | 0.00 | 0.00 | 0.00 | 10 | 1022.0 |
| 20260502103205 | 20 | 12 | 0.0 | 0.0 | 0.00 | 0.00 | 0.00 | 10 | 1022.0 |
| 20260502102227 | 20 | 12 | 0.0 | 0.0 | 0.00 | 0.00 | 0.00 | 10 | 1022.0 |
| 20260502101249 | 20 | 11 | 0.0 | 0.0 | 0.00 | 0.00 | 0.00 | 12 | 1022.0 |
| 20260502100313 | 20 | 12 | 0.0 | 0.0 | 0.00 | 0.00 | 0.00 | 12 | 1022.0 |
| 20260502091502 | 18 | 15 | 0.0 | 0.0 | 0.00 | 0.00 | 0.00 | 13 | 1022.0 |
| 20260502090524 | 18 | 15 | 0.0 | 0.0 | 0.00 | 0.00 | 0.00 | 13 | 1022.0 |
| 20260502070950 | 17 | 20 | 0.0 | 0.0 | 0.00 | 0.00 | 0.00 | 16 | 1023.0 |
| 20260502070012 | 17 | 23 | 0.0 | 0.0 | 0.00 | 0.00 | 0.00 | 16 | 1023.0 |
| 20260502065038 | 17 | 24 | 0.0 | 0.0 | 0.00 | 0.00 | 0.00 | 16 | 1023.0 |
| 20260502064056 | 17 | 21 | 0.0 | 0.0 | 0.00 | 0.00 | 0.00 | 16 | 1023.0 |
| 20260502063118 | 17 | 22 | 0.0 | 0.0 | 0.00 | 0.00 | 0.00 | 16 | 1023.0 |
| 20260502062141 | 17 | 24 | 0.0 | 0.0 | 0.00 | 0.00 | 0.00 | 16 | 1022.0 |
| 20260502061203 | 17 | 23 | 0.0 | 0.0 | 0.00 | 0.00 | 0.00 | 16 | 1022.0 |
| 20260502060227 | 17 | 23 | 0.0 | 0.0 | 0.00 | 0.00 | 0.00 | 18 | 1023.0 |
| 20260502055250 | 17 | 24 | 0.0 | 0.0 | 0.00 | 0.00 | 0.00 | 18 | 1022.0 |
| 20260502054309 | 17 | 25 | 0.0 | 0.0 | 0.00 | 0.00 | 0.00 | 18 | 1022.0 |
| 20260502052355 | 17 | 25 | 0.0 | 0.0 | 0.00 | 0.00 | 0.00 | 18 | 1022.0 |
| 20260502051416 | 17 | 24 | 0.0 | 0.0 | 0.00 | 0.00 | 0.00 | 18 | 1022.0 |
| 20260502050438 | 17 | 25 | 0.0 | 0.0 | 0.00 | 0.00 | 0.00 | 18 | 1022.0 |
| 20260502045500 | 17 | 25 | 0.0 | 0.0 | 0.00 | 0.00 | 0.00 | 18 | 1022.0 |
| 20260502044522 | 17 | 24 | 0.0 | 0.0 | 0.00 | 0.00 | 0.00 | 18 | 1022.0 |
| 20260502043544 | 17 | 22 | 0.0 | 0.0 | 0.00 | 0.00 | 0.00 | 18 | 1022.0 |
| 20260502042606 | 17 | 23 | 0.0 | 0.0 | 0.00 | 0.00 | 0.00 | 18 | 1022.0 |
| 20260502041629 | 17 | 23 | 0.0 | 0.0 | 0.00 | 0.00 | 0.00 | 18 | 1022.0 |
| 20260502040654 | 17 | 25 | 0.0 | 0.0 | 0.00 | 0.00 | 0.00 | 18 | 1022.0 |
| 20260502035713 | 17 | 25 | 0.0 | 0.0 | 0.00 | 0.00 | 0.00 | 18 | 1022.0 |
| 20260502034735 | 17 | 23 | 0.0 | 0.0 | 0.00 | 0.00 | 0.00 | 18 | 1022.0 |
| 20260502033757 | 17 | 25 | 0.0 | 0.0 | 0.00 | 0.00 | 0.00 | 18 | 1022.0 |
| 20260502032819 | 17 | 23 | 0.0 | 0.0 | 0.00 | 0.00 | 0.00 | 16 | 1022.0 |
| 20260502031841 | 17 | 21 | 0.0 | 0.0 | 0.00 | 0.00 | 0.00 | 16 | 1022.0 |
| 20260502030906 | 17 | 23 | 0.0 | 0.0 | 0.00 | 0.00 | 0.00 | 16 | 1022.0 |
| 20260502025926 | 17 | 21 | 0.0 | 0.0 | 0.00 | 0.00 | 0.00 | 16 | 1022.0 |
| 20260502024948 | 17 | 19 | 0.0 | 0.0 | 0.00 | 0.00 | 0.00 | 16 | 1022.0 |
| 20260502024010 | 17 | 19 | 0.0 | 0.0 | 0.00 | 0.00 | 0.00 | 16 | 1022.0 |
| 20260502023032 | 17 | 22 | 0.0 | 0.0 | 0.00 | 0.00 | 0.00 | 16 | 1022.0 |
| 20260502022054 | 17 | 22 | 0.0 | 0.0 | 0.00 | 0.00 | 0.00 | 16 | 1022.0 |
| 20260502021116 | 17 | 19 | 0.0 | 0.0 | 0.00 | 0.00 | 0.00 | 16 | 1022.0 |
| 20260502020138 | 17 | 22 | 0.0 | 0.0 | 0.00 | 0.00 | 0.00 | 16 | 1022.0 |
| 20260502015204 | 17 | 23 | 0.0 | 0.0 | 0.00 | 0.00 | 0.00 | 16 | 1023.0 |
| 20260502014223 | 17 | 22 | 0.0 | 0.0 | 0.00 | 0.00 | 0.00 | 16 | 1022.0 |
| 20260502013245 | 17 | 21 | 0.0 | 0.0 | 0.00 | 0.00 | 0.00 | 18 | 1022.0 |
| 20260502012307 | 17 | 22 | 0.0 | 0.0 | 0.00 | 0.00 | 0.00 | 16 | 1022.0 |
| 20260502011329 | 17 | 21 | 0.0 | 0.0 | 0.00 | 0.00 | 0.00 | 16 | 1022.0 |
| 20260502010351 | 17 | 24 | 0.0 | 0.0 | 0.00 | 0.00 | 0.00 | 18 | 1023.0 |
| 20260502005414 | 17 | 22 | 0.0 | 0.0 | 0.00 | 0.00 | 0.00 | 18 | 1023.0 |
| 20260502004436 | 17 | 24 | 0.0 | 0.0 | 0.00 | 0.00 | 0.00 | 18 | 1023.0 |
| 20260502003458 | 17 | 24 | 0.0 | 0.0 | 0.00 | 0.00 | 0.00 | 18 | 1023.0 |
| 20260502002520 | 17 | 25 | 0.0 | 0.0 | 0.00 | 0.00 | 0.00 | 18 | 1023.0 |
| 20260502000606 | 17 | 22 | 0.0 | 0.0 | 0.00 | 0.00 | 0.00 | 18 | 1023.0 |
| 20260501235630 | 17 | 22 | 0.0 | 0.0 | 0.00 | 0.00 | 0.00 | 18 | 1023.0 |
| 20260501234651 | 17 | 22 | 0.0 | 0.0 | 0.00 | 0.00 | 0.00 | 18 | 1023.0 |
| 20260501233711 | 17 | 24 | 0.0 | 0.0 | 0.00 | 0.00 | 0.00 | 18 | 1023.0 |
| 20260501232733 | 17 | 23 | 0.0 | 0.0 | 0.00 | 0.00 | 0.00 | 16 | 1024.0 |
| 20260501231755 | 17 | 23 | 0.0 | 0.0 | 0.00 | 0.00 | 0.00 | 16 | 1024.0 |
| 20260501230817 | 17 | 22 | 0.0 | 0.0 | 0.00 | 0.00 | 0.00 | 16 | 1024.0 |
| 20260501225839 | 17 | 22 | 0.0 | 0.0 | 0.00 | 0.00 | 0.00 | 16 | 1024.0 |
| 20260501224901 | 17 | 24 | 0.0 | 0.0 | 0.00 | 0.00 | 0.00 | 16 | 1024.0 |
| 20260501223923 | 17 | 24 | 0.0 | 0.0 | 0.00 | 0.00 | 0.00 | 18 | 1023.0 |
| 20260501222946 | 17 | 23 | 0.0 | 0.0 | 0.00 | 0.00 | 0.00 | 18 | 1024.0 |
| 20260501222008 | 17 | 22 | 0.0 | 0.0 | 0.00 | 0.00 | 0.00 | 18 | 1024.0 |
| 20260501221030 | 17 | 23 | 0.0 | 0.0 | 0.00 | 0.00 | 0.00 | 18 | 1023.0 |
| 20260501220052 | 17 | 22 | 0.0 | 0.0 | 0.00 | 0.00 | 0.00 | 16 | 1023.0 |
| 20260501215114 | 17 | 22 | 0.0 | 0.0 | 0.00 | 0.00 | 0.00 | 16 | 1023.0 |
| 20260501213159 | 17 | 21 | 0.0 | 0.0 | 0.00 | 0.00 | 0.00 | 16 | 1024.0 |
| 20260501212221 | 17 | 24 | 0.0 | 0.0 | 0.00 | 0.00 | 0.00 | 16 | 1024.0 |
| 20260501211243 | 17 | 22 | 0.0 | 0.0 | 0.00 | 0.00 | 0.00 | 16 | 1024.0 |
| 20260501210305 | 17 | 23 | 0.0 | 0.0 | 0.00 | 0.00 | 0.00 | 16 | 1024.0 |
| 20260501205327 | 17 | 22 | 0.0 | 0.0 | 0.00 | 0.00 | 0.00 | 18 | 1024.0 |
| 20260501204349 | 17 | 24 | 0.0 | 0.0 | 0.00 | 0.00 | 0.00 | 18 | 1024.0 |
| 20260501202434 | 17 | 23 | 0.0 | 0.0 | 0.00 | 0.00 | 0.00 | 18 | 1023.0 |
| 20260501201457 | 17 | 24 | 0.0 | 0.0 | 0.00 | 0.00 | 0.00 | 18 | 1024.0 |
| 20260501200520 | 17 | 26 | 0.0 | 0.0 | 0.00 | 0.00 | 0.00 | 18 | 1023.0 |
| 20260501195542 | 17 | 23 | 0.0 | 0.0 | 0.00 | 0.00 | 0.00 | 18 | 1023.0 |